Location: Unspecified
(42.3650°N, 71.1030°W)
Time: 15:24:30
(UTC+00:00)

NOAA 15 - Visible Passes

Search period start: 12 July 2024 00:00
Search period end: 22 July 2024 00:00
Orbit: 796 x 809 km, 98.6° (Epoch: 12 July)

Date Brightness Start Highest point End Pass type
(mag) Time Alt. Az. Time Alt. Az. Time Alt. Az.
14 Jul 7.2 00:49:01 10° SW 00:52:34 18° W 00:56:09 10° NW visible
17 Jul 7.7 01:14:11 10° W 01:15:22 11° W 01:16:34 10° WNW visible
18 Jul 7.2 00:45:33 10° SW 00:49:16 19° W 00:53:02 10° NW visible
21 Jul 7.5 01:10:16 10° WSW 01:12:03 12° W 01:13:51 10° WNW visible
